FW7345 Weather Reports


Display with metric or nautical units.
time (UTC)temp
F
wind
direction
speed
MPH
gust
MPH
rain 1hr
in
rain 24hr
in
rain mn
in
humidity
%
barometer
mb
20260510150110 79 129 1.0 4.0 0.00 0.00 0.00 92 1014.9
20260510144609 78 211 0.0 7.0 0.00 0.00 0.00 95 1015.0
20260510143053 77 0 1.0 5.0 0.00 0.00 0.00 97 1014.9
20260510141551 76 33 1.0 4.0 0.00 0.00 0.00 99 1014.7
20260510140052 76 0 0.0 3.0 0.00 0.00 0.00 100 1014.5
20260510134552 75 0 0.0 2.0 0.00 0.00 0.00 100 1014.4
20260510133052 74 0 0.0 1.0 0.00 0.00 0.00 100 1014.2
20260510131553 74 0 0.0 1.0 0.00 0.00 0.00 100 1014.0
20260510130055 73 0 0.0 1.0 0.00 0.00 0.00 100 1013.6
20260510124550 73 0 0.0 0.0 0.00 0.00 0.00 100 1013.3
20260510123056 72 0 0.0 0.0 0.00 0.00 0.00 100 1013.1
20260510121557 71 0 0.0 0.0 0.00 0.00 0.00 100 1012.6
20260510120054 71 0 0.0 0.0 0.00 0.00 0.00 100 1012.2
20260510114552 71 0 0.0 0.0 0.00 0.00 0.00 100 1012.0
20260510113056 71 0 0.0 0.0 0.00 0.00 0.00 100 1011.7
20260510111551 71 0 0.0 0.0 0.00 0.00 0.00 100 1011.5
20260510110051 71 0 0.0 0.0 0.00 0.00 0.00 100 1011.5
20260510104559 71 0 0.0 0.0 0.00 0.00 0.00 100 1011.2
20260510103052 72 0 0.0 0.0 0.00 0.00 0.00 100 1011.3
20260510101555 72 0 0.0 1.0 0.00 0.00 0.00 100 1011.3
20260510100054 72 117 0.0 2.0 0.00 0.00 0.00 100 1011.2
20260510094600 72 189 0.0 4.0 0.00 0.00 0.00 100 1011.1
20260510093052 72 0 0.0 4.0 0.00 0.00 0.00 99 1011.3
20260510091550 72 170 0.0 2.0 0.00 0.00 0.00 99 1011.2
20260510090115 73 0 1.0 4.0 0.00 0.00 0.00 99 1011.3
20260510084559 73 193 0.0 4.0 0.00 0.00 0.00 95 1011.3
20260510083112 72 0 0.0 0.0 0.00 0.00 0.00 95 1011.5
20260510081611 72 0 0.0 0.0 0.00 0.00 0.00 95 1011.5
20260510080049 73 0 0.0 0.0 0.00 0.00 0.00 95 1011.4
20260510074552 73 0 0.0 1.0 0.00 0.00 0.00 95 1011.3
20260510073052 73 0 0.0 5.0 0.00 0.00 0.00 94 1011.2
20260510071555 73 0 0.0 4.0 0.00 0.00 0.00 94 1011.1
20260510070053 73 178 0.0 4.0 0.00 0.00 0.00 94 1011.2
20260510064550 73 225 0.0 3.0 0.00 0.00 0.00 94 1011.2
20260510063052 73 0 0.0 2.0 0.00 0.00 0.00 94 1011.2
20260510061602 72 0 0.0 1.0 0.00 0.00 0.00 93 1011.5
20260510060054 73 0 0.0 3.0 0.00 0.00 0.00 93 1011.6
20260510054552 73 223 0.0 4.0 0.00 0.00 0.00 93 1011.6
20260510053057 73 0 0.0 5.0 0.00 0.00 0.00 92 1011.5
20260510051551 72 0 0.0 1.0 0.00 0.00 0.00 91 1011.7
20260510050053 73 0 0.0 3.0 0.00 0.00 0.00 90 1011.7
20260510044552 73 261 0.0 3.0 0.00 0.00 0.00 89 1011.5
20260510043110 73 153 0.0 3.0 0.00 0.00 0.00 87 1011.7
20260510041555 74 0 0.0 5.0 0.00 0.00 0.00 86 1011.6
20260510040103 73 0 0.0 6.0 0.00 0.00 0.00 87 1011.7
20260510034559 73 0 0.0 5.0 0.00 0.00 0.00 88 1011.8
20260510033053 73 0 0.0 3.0 0.00 0.00 0.00 90 1011.7
20260510031603 72 0 0.0 0.0 0.00 0.00 0.00 89 1011.4
20260510030051 72 0 0.0 0.0 0.00 0.00 0.00 86 1010.8
20260510024550 72 0 0.0 1.0 0.00 0.00 0.00 84 1010.6
20260510023049 73 0 0.0 4.0 0.00 0.00 0.00 82 1010.2
20260510021552 74 0 0.0 2.0 0.00 0.00 0.00 78 1009.9
20260510020047 75 300 0.0 3.0 0.00 0.00 0.00 78 1009.5
20260510014547 77 0 0.0 3.0 0.00 0.00 0.00 78 1009.6
20260510013104 79 0 0.0 10.0 0.00 0.00 0.00 75 1009.2
20260510011554 79 297 3.0 9.0 0.00 0.00 0.00 71 1008.9
20260510010049 79 253 9.0 19.0 0.00 0.00 0.00 69 1009.0
20260510004550 78 71 2.0 7.0 0.00 0.00 0.00 71 1009.0
20260510003055 79 153 4.0 13.0 0.00 0.00 0.00 66 1008.8
20260510001554 78 89 4.0 12.0 0.00 0.00 0.00 69 1008.8
20260510000054 78 166 3.0 11.0 0.00 0.00 0.00 69 1008.9
20260509234552 83 106 4.0 12.0 0.00 0.00 0.00 65 1008.8
20260509233055 86 0 0.0 1.0 0.00 0.00 0.00 79 1008.2
20260509231558 87 0 0.0 0.0 0.00 0.00 0.00 76 1008.4
20260509230052 88 0 0.0 1.0 0.00 0.00 0.00 75 1008.2
20260509224549 89 0 0.0 1.0 0.00 0.00 0.00 71 1008.1
20260509223053 91 0 0.0 1.0 0.00 0.00 0.00 67 1008.1
20260509221551 93 0 0.0 2.0 0.00 0.00 0.00 65 1007.9
20260509220055 92 0 0.0 5.0 0.00 0.00 0.00 67 1008.0
20260509214553 91 0 0.0 3.0 0.00 0.00 0.00 67 1008.0
20260509213051 94 275 1.0 2.0 0.00 0.00 0.00 70 1007.9
20260509211552 93 228 0.0 2.0 0.00 0.00 0.00 70 1008.1
20260509210107 90 0 0.0 4.0 0.00 0.00 0.00 73 1008.2
20260509204600 89 313 0.0 4.0 0.00 0.00 0.00 75 1008.5
20260509203055 90 60 0.0 3.0 0.00 0.00 0.00 75 1008.6
20260509201551 90 0 1.0 5.0 0.00 0.00 0.00 74 1008.7
20260509200106 89 226 2.0 3.0 0.00 0.00 0.00 73 1009.0
20260509194555 89 25 1.0 4.0 0.00 0.00 0.00 74 1009.0
20260509193056 89 34 2.0 4.0 0.00 0.00 0.00 75 1009.2
20260509191554 88 42 0.0 5.0 0.00 0.00 0.00 75 1009.2
20260509190058 88 309 1.0 3.0 0.00 0.00 0.00 78 1009.2
20260509184645 86 0 2.0 4.0 0.00 0.00 0.00 78 1009.3
20260509183109 87 15 1.0 3.0 0.00 0.00 0.00 76 1009.7
20260509181553 87 124 0.0 3.0 0.00 0.00 0.00 80 1009.9
20260509180109 86 300 1.0 3.0 0.00 0.00 0.00 82 1010.1
20260509174549 85 281 2.0 3.0 0.00 0.08 0.00 82 1010.4
20260509173051 85 226 2.0 7.0 0.00 0.08 0.00 86 1010.4
20260509171551 84 288 0.0 4.0 0.00 0.08 0.00 83 1011.0
20260509170100 84 101 1.0 3.0 0.00 0.08 0.00 86 1010.9
20260509164551 81 184 0.0 2.0 0.00 0.09 0.00 90 1011.0
20260509163106 80 101 0.0 2.0 0.00 0.09 0.00 92 1011.0
20260509161552 79 17 0.0 1.0 0.00 0.09 0.00 95 1011.0
20260509160055 79 64 0.0 2.0 0.00 0.09 0.00 96 1011.1
20260509154555 79 0 0.0 1.0 0.00 0.09 0.00 98 1010.8
20260509153057 78 0 0.0 2.0 0.00 0.09 0.00 98 1010.9
20260509151555 77 0 0.0 2.0 0.00 0.09 0.00 99 1010.7